Total_Precipitation_Accumulation
0.06 0.14 0.21 0.23 0.20 0.17 0.13 0.12 0.24 0.26 0.34 0.41 0.51 0.45 0.38 0.35 0.31 0.34 0.41 0.38 0.36 0.35 0.40 0.42 0.46 0.42 0.42 0.46 0.51 0.66 1.04 1.25 1.22 1.20 1.20 1.17 1.17 1.24 1.30 1.36 1.43 1.62 1.78 1.88
0.10 0.13 0.15 0.16 0.19 0.16 0.11 0.10 0.09 0.15 0.28 0.32 0.42 0.43 0.40 0.38 0.37 0.39 0.43 0.40 0.38 0.32 0.40 0.48 0.50 0.50 0.49 0.49 0.54 0.67 0.93 1.14 1.15 1.13 1.11 1.05 1.09 1.19 1.36 1.46 1.61 1.77 1.80 1.77
0.15 0.18 0.17 0.24 0.20 0.16 0.14 0.12 0.13 0.22 0.34 0.32 0.36 0.43 0.45 0.48 0.46 0.41 0.45 0.39 0.32 0.34 0.47 0.66 0.60 0.58 0.62 0.59 0.59 0.72 0.91 1.06 1.16 1.14 1.15 1.13 1.12 1.29 1.47 1.63 1.77 1.88 1.86 1.76
0.21 0.25 0.35 0.26 0.20 0.21 0.24 0.26 0.26 0.29 0.33 0.35 0.41 0.43 0.52 0.60 0.55 0.45 0.47 0.47 0.46 0.44 0.50 0.58 0.57 0.60 0.66 0.66 0.67 0.77 0.95 1.14 1.22 1.17 1.22 1.32 1.35 1.44 1.66 1.88 2.01 2.01 1.94 1.84
0.30 0.34 0.40 0.36 0.29 0.33 0.36 0.40 0.42 0.45 0.39 0.44 0.44 0.49 0.61 0.57 0.56 0.59 0.59 0.58 0.61 0.65 0.62 0.66 0.70 0.71 0.72 0.78 0.81 0.90 0.97 1.12 1.21 1.28 1.39 1.45 1.51 1.68 1.89 2.06 2.07 2.00 2.03 1.99
0.44 0.51 0.57 0.56 0.41 0.35 0.42 0.70 0.55 0.57 0.56 0.50 0.52 0.73 0.78 0.60 0.55 0.56 0.62 0.66 0.65 0.72 0.76 0.80 0.84 0.89 0.89 0.95 1.06 1.20 1.28 1.33 1.51 1.70 1.88 1.98 2.04 2.10 2.13 2.18 2.08 2.04 2.04 2.06
0.63 0.74 0.68 0.53 0.46 0.41 0.77 1.07 0.80 0.77 0.74 0.65 0.76 0.83 0.78 0.64 0.55 0.55 0.55 0.61 0.65 0.68 0.77 0.81 0.85 0.98 1.13 1.20 1.30 1.42 1.55 1.62 1.82 2.14 2.33 2.33 2.33 2.28 2.21 2.21 2.21 2.18 2.11 2.09
0.84 1.05 1.10 0.61 0.57 0.86 1.08 0.91 0.93 0.95 0.92 0.85 0.83 0.87 0.83 0.77 0.61 0.55 0.54 0.56 0.61 0.67 0.73 0.85 0.98 1.20 1.46 1.54 1.50 1.58 1.74 1.92 2.13 2.38 2.36 2.28 2.45 2.39 2.36 2.41 2.37 2.27 2.20 2.13
1.07 1.25 1.06 0.73 0.85 1.04 1.03 0.97 0.97 0.97 0.92 0.82 0.76 0.88 0.82 0.72 0.67 0.54 0.50 0.55 0.61 0.67 0.79 0.90 1.11 1.47 1.73 1.76 1.82 1.85 1.95 2.07 2.16 2.27 2.46 2.61 2.67 2.59 2.51 2.48 2.42 2.25 2.15 2.02
1.23 1.33 1.11 0.95 0.95 0.94 0.98 0.98 0.92 0.84 0.79 0.79 0.74 0.72 0.70 0.62 0.58 0.55 0.54 0.57 0.64 0.73 0.89 1.08 1.26 1.56 1.71 1.75 1.81 1.87 1.87 1.83 1.91 2.08 2.24 2.33 2.57 2.63 2.54 2.39 2.34 2.28 2.16 2.02
1.50 1.58 1.38 1.25 1.08 0.96 0.97 0.93 0.93 0.91 0.83 0.78 0.72 0.66 0.57 0.53 0.53 0.55 0.53 0.58 0.69 0.81 0.92 1.04 1.20 1.38 1.47 1.64 1.74 1.84 1.80 1.71 1.71 1.72 1.83 1.93 2.04 2.16 2.17 2.18 2.02 1.91 1.79 1.73
1.61 1.42 1.31 1.42 1.24 1.05 0.99 1.00 1.06 1.11 1.10 0.94 0.78 0.71 0.66 0.59 0.54 0.51 0.51 0.59 0.71 0.84 0.95 1.05 1.19 1.38 1.45 1.58 1.67 1.71 1.66 1.58 1.58 1.58 1.64 1.72 1.76 1.72 1.57 1.52 1.37 1.23 1.19 1.14
1.21 1.19 1.20 1.29 1.23 1.17 1.18 1.25 1.31 1.27 1.13 0.90 0.74 0.69 0.63 0.57 0.53 0.52 0.54 0.65 0.79 0.88 0.96 1.06 1.17 1.31 1.48 1.62 1.71 1.75 1.65 1.50 1.41 1.36 1.41 1.45 1.53 1.66 1.72 1.52 1.30 1.12 1.00 0.87
1.16 1.25 1.41 1.45 1.43 1.30 1.25 1.36 1.35 1.16 1.04 0.89 0.73 0.65 0.59 0.51 0.45 0.42 0.46 0.57 0.68 0.78 0.84 0.92 1.06 1.19 1.35 1.50 1.55 1.58 1.55 1.44 1.34 1.33 1.37 1.40 1.46 1.57 1.69 1.69 1.44 1.11 0.96 0.84
1.23 1.21 1.33 1.39 1.37 1.37 1.33 1.31 1.33 1.24 1.07 0.99 0.90 0.80 0.70 0.63 0.58 0.56 0.56 0.61 0.72 0.81 0.84 0.89 1.02 1.11 1.25 1.42 1.47 1.42 1.37 1.29 1.23 1.28 1.30 1.28 1.33 1.38 1.44 1.48 1.38 1.20 1.01 0.82
1.41 1.24 1.28 1.29 1.26 1.24 1.19 1.14 1.10 1.07 0.98 0.90 0.83 0.77 0.72 0.68 0.64 0.62 0.65 0.78 0.98 1.02 0.98 0.99 1.04 1.09 1.24 1.40 1.41 1.35 1.25 1.09 1.01 1.08 1.13 1.12 1.16 1.20 1.22 1.27 1.25 1.18 1.05 0.81
1.36 1.33 1.26 1.17 1.13 1.12 1.01 0.94 0.91 0.86 0.89 0.88 0.77 0.68 0.61 0.58 0.60 0.63 0.72 0.82 0.92 0.93 0.92 0.98 0.97 0.95 1.11 1.29 1.37 1.31 1.18 1.00 0.78 0.73 0.83 0.89 0.98 1.05 1.08 1.09 1.11 1.09 0.94 0.68
1.04 1.08 1.08 1.01 0.98 0.95 0.90 0.82 0.79 0.72 0.72 0.74 0.71 0.65 0.60 0.61 0.72 0.82 0.89 0.93 0.90 0.81 0.79 0.81 0.79 0.82 0.96 1.04 1.10 1.15 1.06 0.96 0.80 0.70 0.73 0.78 0.86 0.96 0.97 0.94 0.93 0.91 0.80 0.61
0.83 0.83 0.89 0.87 0.79 0.71 0.70 0.68 0.68 0.68 0.64 0.67 0.67 0.66 0.70 0.77 0.88 0.97 1.01 1.11 1.14 1.01 0.84 0.73 0.70 0.72 0.85 0.87 0.89 1.00 0.99 0.91 0.78 0.71 0.73 0.72 0.77 0.87 0.88 0.83 0.79 0.74 0.66 0.58
0.83 0.79 0.85 0.81 0.72 0.65 0.59 0.58 0.59 0.58 0.58 0.61 0.67 0.72 0.82 0.92 1.03 1.12 1.16 1.19 1.19 1.12 0.92 0.76 0.67 0.67 0.71 0.77 0.85 0.88 0.90 0.85 0.73 0.68 0.70 0.74 0.74 0.76 0.73 0.69 0.66 0.61 0.57 0.55
0.86 0.86 0.87 0.85 0.76 0.64 0.55 0.52 0.54 0.58 0.62 0.66 0.76 0.83 0.96 1.09 1.15 1.23 1.39 1.38 1.12 0.98 0.85 0.73 0.65 0.63 0.65 0.72 0.78 0.82 0.86 0.86 0.76 0.66 0.64 0.67 0.68 0.69 0.66 0.64 0.59 0.54 0.52 0.52
0.82 0.85 0.77 0.71 0.68 0.64 0.56 0.50 0.53 0.63 0.75 0.83 0.83 0.85 0.98 1.10 1.23 1.34 1.34 1.43 1.27 1.10 0.84 0.66 0.58 0.56 0.58 0.64 0.67 0.75 0.78 0.80 0.74 0.65 0.60 0.60 0.62 0.68 0.70 0.63 0.57 0.50 0.49 0.51
0.73 0.75 0.73 0.66 0.61 0.61 0.57 0.52 0.54 0.64 0.81 0.93 0.95 0.98 1.08 1.10 1.22 1.54 1.57 1.36 1.23 1.10 0.78 0.62 0.58 0.52 0.50 0.51 0.59 0.65 0.68 0.70 0.69 0.59 0.52 0.52 0.55 0.62 0.67 0.64 0.61 0.54 0.52 0.50
0.72 0.67 0.66 0.63 0.56 0.57 0.57 0.56 0.59 0.66 0.74 0.81 0.83 0.89 1.03 1.07 1.08 1.16 1.34 1.40 1.29 1.11 0.82 0.68 0.59 0.48 0.43 0.42 0.55 0.65 0.67 0.67 0.66 0.54 0.44 0.44 0.49 0.58 0.62 0.62 0.61 0.57 0.53 0.51
0.74 0.66 0.57 0.56 0.61 0.69 0.72 0.71 0.77 0.79 0.79 0.80 0.72 0.71 0.80 0.93 1.06 1.02 1.02 1.10 1.19 1.06 0.88 0.75 0.64 0.58 0.46 0.43 0.53 0.63 0.66 0.64 0.57 0.50 0.46 0.51 0.56 0.60 0.58 0.55 0.55 0.52 0.52 0.52
0.75 0.69 0.63 0.57 0.59 0.68 0.80 0.91 1.04 1.04 1.02 1.02 0.87 0.70 0.68 0.74 0.78 0.82 0.89 0.94 0.98 0.96 0.87 0.81 0.71 0.63 0.57 0.54 0.57 0.63 0.68 0.70 0.61 0.55 0.56 0.63 0.63 0.61 0.60 0.55 0.49 0.49 0.48 0.45
0.68 0.64 0.62 0.60 0.65 0.70 0.82 0.95 1.12 1.16 1.12 1.14 1.00 0.77 0.66 0.66 0.66 0.70 0.76 0.85 0.88 0.89 0.86 0.80 0.73 0.64 0.58 0.58 0.59 0.61 0.66 0.68 0.65 0.63 0.62 0.62 0.62 0.62 0.59 0.54 0.50 0.49 0.48 0.45